Weather observations for the past three days for
Lexington Blue Grass Airport
Metric (Imperial)
Date Time (edt) Wind (kph) Vis. (km) Weather Sky Cond. Temperature (ºC) Relative Humidity Wind Chill (°C) Heat Index (°C) Pressure Precipitation (cm)
Air Dwpt 6 hour altimeter (cm) sea level (mb) 1 hr 3 hr 6 hr
Max. Min.
04 08:54 Calm 16.09 Fair CLR 26.7 22.2 76% 29 76.33 1016.5
04 07:54 S 7 16.09 Fair CLR 23.9 21.7 26.7 22.2 88% 24 76.3 1016.0
04 06:54 S 6 16.09 Fair CLR 23.3 21.1 88% 76.25 1015.5
04 05:54 SE 6 16.09 Fair CLR 22.8 21.7 94% 76.25 1015.2
04 04:54 Calm 16.09 Fair CLR 24.4 21.7 85% 25 76.23 1015.1
04 03:54 Calm 16.09 Fair CLR 24.4 21.7 85% 25 76.23 1014.9
04 02:54 Calm 16.09 Fair CLR 25.6 21.7 79% 27 76.23 1015.0
04 01:54 S 7 16.09 Fair CLR 26.1 21.7 32.2 25 77% 28 76.25 1015.3
04 00:54 S 7 16.09 Fair CLR 26.7 22.2 76% 29 76.28 1015.6
03 23:54 SE 9 16.09 Fair CLR 26.1 22.8 82% 28 76.3 1015.8
03 22:54 S 6 16.09 Fair CLR 27.2 22.8 77% 30 76.3 1015.9
03 21:54 Calm 16.09 Fair CLR 28.3 22.8 72% 32 76.3 1016.1
03 20:54 Calm 16.09 Fair CLR 30 22.2 63% 33 76.28 1015.8
03 19:54 Calm 16.09 Fair CLR 32.2 21.7 36.1 32.2 54% 36 76.23 1014.9
03 18:54 W 6 16.09 Fair CLR 33.9 21.1 47% 37 76.2 1014.7
03 17:54 W 9 16.09 Fair CLR 34.4 20.6 44% 37 76.2 1014.6
03 16:54 W 15 16.09 A Few Clouds FEW060 35.6 20 40% 38 76.23 1015.0
03 14:54 SW 7 16.09 Partly Cloudy SCT060 35 20 41% 38 76.33 1016.2
03 13:54 Calm 16.09 Fair CLR 34.4 20 35 23.3 43% 37 76.35 1016.6
03 12:54 Vrbl 11 16.09 Fair CLR 34.4 20.6 44% 37 76.38 1017.0
03 11:54 Calm 16.09 Fair CLR 32.8 21.1 50% 36 76.43 1017.5
03 10:54 W 7 16.09 Fair CLR 31.7 21.1 53% 35 76.4 1017.5
03 09:54 W 7 16.09 Fair CLR 30 22.2 63% 33 76.43 1017.6
03 08:54 S 6 16.09 Fair CLR 26.7 21.7 74% 29 76.45 1018.0
03 07:54 S 7 16.09 Fair CLR 23.3 21.1 25.6 21.7 88% 76.45 1018.0
03 06:54 Calm 16.09 Fair CLR 22.2 20.6 91% 76.4 1017.4
03 05:54 Calm 16.09 Fair CLR 22.8 20.6 87% 76.4 1017.3
03 04:54 S 6 16.09 Fair CLR 22.8 20.6 87% 76.38 1017.0
03 03:54 S 7 16.09 Fair CLR 23.9 20.6 82% 24 76.35 1016.7
03 02:54 SE 7 16.09 Fair CLR 24.4 20.6 79% 25 76.33 1016.4
03 01:54 S 7 16.09 Fair CLR 25 20.6 30.6 23.9 77% 26 76.35 1016.6
03 00:54 S 6 16.09 Fair CLR 24.4 21.1 82% 25 76.35 1016.6
02 23:54 S 9 16.09 Fair CLR 26.1 20.6 72% 28 76.33 1016.4
02 22:54 SE 7 16.09 Fair CLR 25.6 21.7 79% 27 76.35 1016.8
02 21:54 S 6 16.09 Fair CLR 26.7 21.7 74% 29 76.35 1016.8
02 20:54 Calm 16.09 Fair CLR 27.8 22.2 72% 30 76.33 1016.5
02 19:54 Calm 16.09 Fair CLR 31.1 20.6 35 31.1 54% 34 76.33 1016.3
02 18:54 SW 7 16.09 Fair CLR 33.3 20 46% 36 76.33 1016.5
02 17:54 SW 11 16.09 Fair CLR 33.9 18.9 41% 36 76.35 1016.7
02 16:54 SW 13 16.09 Fair CLR 34.4 18.9 40% 36 76.35 1016.9
02 15:54 SW 13 16.09 Fair CLR 34.4 19.4 41% 36 76.4 1017.3
02 14:54 SW 17 16.09 A Few Clouds FEW055 34.4 20.6 44% 37 76.45 1017.9
02 13:54 SW 17 16.09 A Few Clouds FEW050 34.4 21.1 34.4 23.3 46% 38 76.48 1018.2
02 12:54 W 13 16.09 Fair CLR 33.3 21.1 49% 37 76.53 1019.0
02 11:54 NW 9 16.09 Fair CLR 32.8 21.7 52% 36 76.56 1019.5
02 10:54 Vrbl 6 16.09 Fair CLR 31.1 22.2 59% 35 76.56 1019.3
02 09:54 W 6 16.09 Fair CLR 28.3 22.2 70% 31 76.56 1019.4
02 08:54 SW 9 16.09 Fair CLR 26.1 21.1 74% 28 76.53 1019.2
02 07:54 S 7 16.09 Fair CLR 23.3 20.6 23.9 21.7 85% 76.5 1018.7
02 06:54 S 9 16.09 Fair CLR 22.2 20 87% 76.45 1018.2
02 05:54 S 7 16.09 Fair CLR 22.2 20.6 91% 76.45 1018.0
02 04:54 S 9 16.09 Fair CLR 22.8 20.6 87% 76.43 1017.8
02 03:54 S 9 16.09 Fair CLR 23.3 21.1 88% 76.4 1017.5
02 02:54 S 11 16.09 Fair CLR 23.9 21.1 84% 24 76.4 1017.5
02 01:54 SE 7 16.09 Fair CLR 23.9 21.1 30.6 22.8 84% 24 76.43 1017.7
02 00:54 S 6 16.09 Fair CLR 23.9 21.1 84% 24 76.4 1017.6
01 23:54 S 6 16.09 Fair CLR 25 21.1 79% 26 76.43 1017.6
01 22:54 S 7 16.09 Fair CLR 25 21.7 82% 26 76.43 1017.7
01 21:54 S 6 16.09 Fair CLR 25.6 22.2 82% 27 76.4 1017.7
01 20:54 Calm 16.09 Fair CLR 28.9 21.1 63% 31 76.38 1017.1
01 19:54 Calm 16.09 Fair CLR 30.6 20.6 33.9 30.6 55% 33 76.38 1017.2
01 18:54 SW 7 16.09 Fair CLR 32.8 20.6 49% 36 76.4 1017.3
01 17:54 Vrbl 6 16.09 A Few Clouds FEW055 33.3 20 46% 36 76.38 1017.2
01 16:54 SW 15 16.09 Fair CLR 33.9 20 44% 36 76.4 1017.3
01 15:54 Vrbl 11 16.09 Partly Cloudy SCT050 33.3 20.6 47% 36 76.43 1017.9
01 14:54 Vrbl 11 16.09 Partly Cloudy SCT049 33.3 20.6 47% 36 76.48 1018.5
01 13:54 W 17 16.09 A Few Clouds FEW045 32.2 21.1 33.3 22.2 52% 35 76.53 1019.0
01 12:54 Vrbl 9 16.09 A Few Clouds FEW044 32.2 21.1 52% 35 76.56 1019.3
01 11:54 W 11 16.09 Fair CLR 31.1 21.7 57% 34 76.58 1019.6
01 10:54 SW 15 16.09 Fair CLR 30 21.7 61% 33 76.58 1019.7
01 09:54 W 7 16.09 Fair CLR 27.8 21.7 69% 30 76.58 1019.9
Date Time (edt) Wind (kph) Vis. (km) Weather Sky Cond. Air Dwpt Max. Min. Relative Humidity Wind Chill (°C) Heat Index (°C) altimeter (cm) sea level (mb) 1 hr 3 hr 6 hr
6 hour
Temperature (ºC) Pressure Precipitation (cm)